Regional Weather Roundup
Issued by NWS Cleveland, OH

Home | Current Version | Previous Version | Text Only | Print | Product List | Glossary Off
Versions: 1 2 3 4 5 6 7 8 9 10 11 12 13 14 15 16 17 18 19 20 21 22 23 24 25 26 27 28 29 30 31 32 33 34 35 36 37 38 39 40 41 42 43 44 45 46 47 48 49 50

000
ASUS41 KCLE 230700
RWRCLE
OHIO REGIONAL WEATHER ROUNDUP
NATIONAL WEATHER SERVICE WILMINGTON, OH
300 AM EDT SAT MAY 23 2015

NOTE: "FAIR" INDICATES FEW OR NO CLOUDS BELOW 12,000 FEET WITH NO
SIGNIFICANT WEATHER AND/OR OBSTRUCTIONS TO VISIBILITY.

OHZ001>008-015>018-024>027-034-035-043-044-230800-
   NORTHWEST OHIO

CITY           SKY/WX    TMP DP  RH WIND       PRES   REMARKS
DEFIANCE       MOCLDY    48  39  71 N6        30.31S
FINDLAY        MOCLDY    50  37  61 CALM      30.30S
TOLEDO EXPRESS MOCLDY    47  41  80 E5        30.32R
TOLEDO EXEC    MOCLDY    52  44  74 NE7       30.33S
LIMA           MOCLDY    50  36  58 S3        30.31R
$$

OHZ009>014-019>023-028>033-038-089-230800-
   NORTHEAST OHIO

CITY           SKY/WX    TMP DP  RH WIND       PRES   REMARKS
CLE-HOPKINS    MOCLDY    45  30  55 S5        30.36R
CLE-LAKEFRONT  PTCLDY    49  29  46 SE8       30.33R
CUY CO. ARPT   NOT AVBL
LORAIN-ELYRIA  PTCLDY    43  35  73 CALM      30.34R
ASHTABULA      PTCLDY    36  33  89 CALM      30.35S
AKRON-CANTON   PTCLDY    45  30  55 E3        30.33S
WOOSTER        NOT AVBL
MANSFIELD      PTCLDY    46  35  65 SE5       30.32S
YOUNGSTOWN     PTCLDY    38  29  70 CALM      30.33R
$$

OHZ042-051>053-060>062-070>072-077>081-230800-
  SOUTHWEST OHIO

CITY           SKY/WX    TMP DP  RH WIND       PRES   REMARKS
CINC-COVINGTON PTCLDY    51  47  86 CALM      30.29S
CINC-LUNKEN    CLEAR     49  47  93 CALM      30.31R
HAMILTON       CLEAR     47  46  97 CALM      30.31S
DAYTON         NOT AVBL
WRIGHT-PAT AFB CLEAR     47  43  85 N5        30.30S
DAYTON GENERAL CLEAR     50  44  80 E7        30.29S
WILMINGTON     CLEAR     54  39  57 E6        30.30S
$$

OHZ036-037-039>041-045>050-054>059-063>069-073>076-082>088-230800-
  CENTRAL AND SOUTHEAST OHIO

CITY           SKY/WX    TMP DP  RH WIND       PRES   REMARKS
COLUMBUS       PTCLDY    51  34  52 E6        30.30F
OSU AIRPORT    PTCLDY    48  35  60 E3        30.31S
BOLTON FIELD   NOT AVBL
RICKENBACK AFB NOT AVBL
NEWARK         CLEAR     43  40  89 CALM      30.32S
MARION         MOCLDY    48  35  60 SE6       30.31F
LANCASTER      CLEAR     47  37  68 S6        30.32S
ZANESVILLE     CLEAR     44  37  76 CALM      30.32S
NEW PHILLY     CLEAR     43  38  82 CALM      30.34S
$$


USA.gov is the U.S. government's official web portal to all federal, state and local government web resources and services.